Time,TemperatureF,DewpointF,PressureIn,WindDirection,WindDirectionDegrees,WindSpeedMPH,WindSpeedGustMPH,Humidity,HourlyPrecipIn,Conditions,Clouds,dailyrainin,SoftwareType,DateUTC
2013-01-12 00:02:00,-10.0,-20.0,-100.00,West,260,4.0,6.0,60,0.00,,,-99.99,,2013-01-12 07:02:00,
2013-01-12 00:12:00,-10.0,-19.0,-100.00,WSW,245,16.0,101.0,61,0.00,,,-99.99,,2013-01-12 07:12:00,
2013-01-12 00:22:00,-10.0,-19.0,-100.00,WSW,245,16.0,101.0,61,0.00,,,-99.99,,2013-01-12 07:22:00,
2013-01-12 00:32:00,-10.0,-21.0,-100.00,West,260,7.0,11.0,56,0.00,,,-99.99,,2013-01-12 07:32:00,
2013-01-12 00:42:00,-13.0,-24.0,-100.00,West,270,8.0,100.0,58,0.00,,,-99.99,,2013-01-12 07:42:00,
2013-01-12 00:52:00,-11.0,-21.0,-100.00,West,265,7.0,8.0,59,0.00,,,-99.99,,2013-01-12 07:52:00,
2013-01-12 01:02:00,-8.0,-19.0,-100.00,West,260,7.0,9.0,56,0.00,,,-99.99,,2013-01-12 08:02:00,
2013-01-12 01:12:00,-9.0,-21.0,-100.00,West,265,9.0,12.0,55,0.00,,,-99.99,,2013-01-12 08:12:00,
2013-01-12 01:22:00,-12.0,-24.0,-100.00,West,270,7.0,11.0,55,0.00,,,-99.99,,2013-01-12 08:22:00,
2013-01-12 01:32:00,-15.0,-26.0,-100.00,West,275,9.0,11.0,55,0.00,,,-99.99,,2013-01-12 08:32:00,
2013-01-12 01:42:00,-16.0,-27.0,-100.00,West,270,47.0,109.0,56,0.00,,,-99.99,,2013-01-12 08:42:00,
2013-01-12 01:52:00,-15.0,-25.0,-100.00,East,85,35.0,109.0,57,0.00,,,-99.99,,2013-01-12 08:52:00,
2013-01-12 02:02:00,-13.0,-23.0,-100.00,West,265,63.0,99.0,58,0.00,,,-99.99,,2013-01-12 09:02:00,
2013-01-12 02:12:00,-13.0,-23.0,-100.00,West,265,63.0,99.0,58,0.00,,,-99.99,,2013-01-12 09:12:00,
2013-01-12 02:22:00,-10.0,-21.0,-100.00,East,90,12.0,100.0,58,0.00,,,-99.99,,2013-01-12 09:22:00,
2013-01-12 02:32:00,-7.0,-18.0,-100.00,East,100,21.0,101.0,58,0.00,,,-99.99,,2013-01-12 09:32:00,
2013-01-12 02:42:00,-7.0,-18.0,-100.00,WSW,250,21.0,99.0,57,0.00,,,-99.99,,2013-01-12 09:42:00,
2013-01-12 02:53:00,-7.0,-18.0,-100.00,West,280,4.0,101.0,57,0.00,,,-99.99,,2013-01-12 09:53:00,
2013-01-12 03:02:00,-7.0,-18.0,-100.00,NNE,15,6.0,100.0,56,0.00,,,-99.99,,2013-01-12 10:02:00,
2013-01-12 03:12:00,-7.0,-19.0,-100.00,North,350,9.0,98.0,56,0.00,,,-99.99,,2013-01-12 10:12:00,
2013-01-12 03:22:00,-8.0,-19.0,-100.00,East,85,19.0,98.0,56,0.00,,,-99.99,,2013-01-12 10:22:00,
2013-01-12 03:32:00,-8.0,-19.0,-100.00,East,95,17.0,109.0,56,0.00,,,-99.99,,2013-01-12 10:32:00,
2013-01-12 03:42:00,-8.0,-19.0,-100.00,East,95,17.0,109.0,56,0.00,,,-99.99,,2013-01-12 10:42:00,
2013-01-12 03:52:00,-6.0,-18.0,-100.00,East,90,30.0,96.0,54,0.00,,,-99.99,,2013-01-12 10:52:00,
2013-01-12 04:02:00,-5.0,-18.0,-100.00,South,185,4.0,64.0,54,0.00,,,-99.99,,2013-01-12 11:02:00,
2013-01-12 04:12:00,-9.0,-21.0,-100.00,South,175,12.0,98.0,54,0.00,,,-99.99,,2013-01-12 11:12:00,
2013-01-12 04:22:00,-9.0,-21.0,-100.00,South,175,12.0,98.0,54,0.00,,,-99.99,,2013-01-12 11:22:00,
2013-01-12 04:32:00,-7.0,-20.0,-100.00,NW,325,13.0,109.0,53,0.00,,,-99.99,,2013-01-12 11:32:00,
2013-01-12 04:42:00,-7.0,-19.0,-100.00,NNW,335,8.0,109.0,54,0.00,,,-99.99,,2013-01-12 11:42:00,
2013-01-12 04:52:00,-5.0,-17.0,-100.00,NW,310,9.0,33.0,53,0.00,,,-99.99,,2013-01-12 11:52:00,
2013-01-12 05:03:00,-5.0,-17.0,-100.00,NW,325,12.0,36.0,53,0.00,,,-99.99,,2013-01-12 12:03:00,
2013-01-12 05:12:00,-5.0,-18.0,-100.00,NW,325,11.0,16.0,52,0.00,,,-99.99,,2013-01-12 12:12:00,
2013-01-12 05:22:00,-4.0,-18.0,-100.00,NNW,335,12.0,31.0,50,0.00,,,-99.99,,2013-01-12 12:22:00,
2013-01-12 05:32:00,-5.0,-18.0,-100.00,NNW,345,9.0,11.0,50,0.00,,,-99.99,,2013-01-12 12:32:00,
2013-01-12 05:42:00,-8.0,-20.0,-100.00,NW,315,25.0,109.0,52,0.00,,,-99.99,,2013-01-12 12:42:00,
2013-01-12 05:52:00,-7.0,-19.0,-100.00,NW,315,9.0,95.0,53,0.00,,,-99.99,,2013-01-12 12:52:00,
2013-01-12 06:02:00,-5.0,-18.0,-100.00,NW,325,6.0,90.0,52,0.00,,,-99.99,,2013-01-12 13:02:00,
2013-01-12 06:12:00,-7.0,-20.0,-100.00,East,90,13.0,96.0,52,0.00,,,-99.99,,2013-01-12 13:12:00,
2013-01-12 06:22:00,-7.0,-20.0,-100.00,South,180,15.0,96.0,52,0.00,,,-99.99,,2013-01-12 13:22:00,
2013-01-12 06:33:00,-6.0,-19.0,-100.00,West,265,39.0,96.0,53,0.00,,,-99.99,,2013-01-12 13:33:00,
2013-01-12 06:42:00,-7.0,-20.0,-100.00,North,0,10.0,100.0,54,0.00,,,-99.99,,2013-01-12 13:42:00,
2013-01-12 06:52:00,-7.0,-20.0,-100.00,North,0,10.0,100.0,54,0.00,,,-99.99,,2013-01-12 13:52:00,
2013-01-12 07:02:00,-7.0,-19.0,-100.00,West,265,25.0,98.0,55,0.00,,,-99.99,,2013-01-12 14:02:00,
2013-01-12 07:12:00,-11.0,-23.0,-100.00,South,175,29.0,87.0,56,0.00,,,-99.99,,2013-01-12 14:12:00,
2013-01-12 07:22:00,-14.0,-25.0,-100.00,South,175,36.0,109.0,58,0.00,,,-99.99,,2013-01-12 14:22:00,
2013-01-12 07:33:00,-16.0,-26.0,-100.00,East,90,57.0,109.0,59,0.00,,,-99.99,,2013-01-12 14:33:00,
2013-01-12 07:43:00,-16.0,-26.0,-100.00,East,90,57.0,109.0,59,0.00,,,-99.99,,2013-01-12 14:43:00,
2013-01-12 07:53:00,-18.0,-27.0,-100.00,WSW,255,9.0,109.0,61,0.00,,,-99.99,,2013-01-12 14:53:00,
2013-01-12 08:03:00,-17.0,-27.0,-100.00,East,85,24.0,102.0,62,0.00,,,-99.99,,2013-01-12 15:03:00,
2013-01-12 08:12:00,-16.0,-25.0,-100.00,WNW,285,7.0,20.0,62,0.00,,,-99.99,,2013-01-12 15:12:00,
2013-01-12 08:22:00,-15.0,-24.0,-100.00,WNW,290,6.0,96.0,62,0.00,,,-99.99,,2013-01-12 15:22:00,
2013-01-12 08:33:00,-13.0,-23.0,-100.00,WNW,295,2.0,6.0,61,0.00,,,-99.99,,2013-01-12 15:33:00,
2013-01-12 08:43:00,-15.0,-25.0,-100.00,West,260,7.0,9.0,60,0.00,,,-99.99,,2013-01-12 15:43:00,
2013-01-12 08:52:00,-12.0,-22.0,-100.00,NW,315,5.0,24.0,60,0.00,,,-99.99,,2013-01-12 15:52:00,
2013-01-12 09:03:00,-11.0,-21.0,-100.00,West,275,4.0,6.0,58,0.00,,,-99.99,,2013-01-12 16:03:00,
2013-01-12 09:12:00,-10.0,-21.0,-100.00,NW,320,3.0,6.0,58,0.00,,,-99.99,,2013-01-12 16:12:00,
2013-01-12 09:23:00,-10.0,-21.0,-100.00,NW,320,3.0,6.0,58,0.00,,,-99.99,,2013-01-12 16:23:00,
2013-01-12 09:33:00,-6.0,-18.0,-100.00,West,260,1.0,6.0,54,0.00,,,-99.99,,2013-01-12 16:33:00,
2013-01-12 09:42:00,-2.0,-16.0,-100.00,West,265,3.0,4.0,52,0.00,,,-99.99,,2013-01-12 16:42:00,
2013-01-12 09:52:00,-3.0,-17.0,-100.00,ESE,115,4.0,6.0,50,0.00,,,-99.99,,2013-01-12 16:52:00,
2013-01-12 10:02:00,-3.0,-17.0,-100.00,ESE,115,4.0,6.0,50,0.00,,,-99.99,,2013-01-12 17:02:00,
2013-01-12 10:12:00,3.0,-13.0,-100.00,SE,130,2.0,3.0,46,0.00,,,-99.99,,2013-01-12 17:12:00,
2013-01-12 10:22:00,-1.0,-17.0,-100.00,East,85,2.0,4.0,45,0.00,,,-99.99,,2013-01-12 17:22:00,
2013-01-12 10:33:00,-3.0,-19.0,-100.00,South,180,7.0,8.0,45,0.00,,,-99.99,,2013-01-12 17:33:00,
2013-01-12 10:42:00,-3.0,-19.0,-100.00,South,180,7.0,8.0,45,0.00,,,-99.99,,2013-01-12 17:42:00,
2013-01-12 10:53:00,-1.0,-16.0,-100.00,South,190,9.0,9.0,48,0.00,,,-99.99,,2013-01-12 17:53:00,
2013-01-12 11:03:00,-1.0,-15.0,-100.00,South,190,9.0,10.0,49,0.00,,,-99.99,,2013-01-12 18:03:00,
2013-01-12 11:12:00,0.0,-15.0,-100.00,ESE,110,4.0,9.0,48,0.00,,,-99.99,,2013-01-12 18:12:00,
2013-01-12 11:23:00,4.0,-12.0,-100.00,SSE,155,2.0,6.0,47,0.00,,,-99.99,,2013-01-12 18:23:00,
2013-01-12 11:33:00,4.0,-12.0,-100.00,SSE,155,2.0,6.0,47,0.00,,,-99.99,,2013-01-12 18:33:00,
2013-01-12 11:42:00,5.0,-13.0,-100.00,SSE,160,5.0,7.0,42,0.00,,,-99.99,,2013-01-12 18:42:00,
2013-01-12 11:52:00,2.0,-14.0,-100.00,SSW,205,9.0,11.0,45,0.00,,,-99.99,,2013-01-12 18:52:00,
2013-01-12 12:03:00,2.0,-14.0,-100.00,SSW,205,9.0,11.0,45,0.00,,,-99.99,,2013-01-12 19:03:00,
2013-01-12 12:12:00,3.0,-13.0,-100.00,SSW,210,8.0,9.0,47,0.00,,,-99.99,,2013-01-12 19:12:00,
2013-01-12 12:23:00,3.0,-13.0,-100.00,SSW,210,8.0,9.0,47,0.00,,,-99.99,,2013-01-12 19:23:00,
2013-01-12 12:33:00,6.0,-11.0,-100.00,South,185,6.0,8.0,44,0.00,,,-99.99,,2013-01-12 19:33:00,
2013-01-12 12:43:00,6.0,-11.0,-100.00,South,185,6.0,8.0,44,0.00,,,-99.99,,2013-01-12 19:43:00,
2013-01-12 12:52:00,6.0,-12.0,-100.00,South,190,7.0,8.0,41,0.00,,,-99.99,,2013-01-12 19:52:00,
2013-01-12 13:03:00,6.0,-12.0,-100.00,South,180,7.0,9.0,41,0.00,,,-99.99,,2013-01-12 20:03:00,
2013-01-12 13:12:00,7.0,-11.0,-100.00,South,170,6.0,9.0,41,0.00,,,-99.99,,2013-01-12 20:12:00,
2013-01-12 13:22:00,7.0,-11.0,-100.00,South,170,6.0,9.0,41,0.00,,,-99.99,,2013-01-12 20:22:00,
2013-01-12 13:33:00,8.0,-11.0,-100.00,South,170,6.0,7.0,41,0.00,,,-99.99,,2013-01-12 20:33:00,
2013-01-12 13:42:00,8.0,-11.0,-100.00,South,180,7.0,8.0,40,0.00,,,-99.99,,2013-01-12 20:42:00,
2013-01-12 13:53:00,8.0,-12.0,-100.00,South,180,6.0,7.0,39,0.00,,,-99.99,,2013-01-12 20:53:00,
2013-01-12 14:03:00,5.0,-14.0,-100.00,South,180,6.0,7.0,40,0.00,,,-99.99,,2013-01-12 21:03:00,
2013-01-12 14:12:00,5.0,-13.0,-100.00,SSE,165,6.0,8.0,41,0.00,,,-99.99,,2013-01-12 21:12:00,
2013-01-12 14:22:00,6.0,-13.0,-100.00,South,180,6.0,7.0,41,0.00,,,-99.99,,2013-01-12 21:22:00,
2013-01-12 14:33:00,6.0,-13.0,-100.00,South,180,6.0,7.0,41,0.00,,,-99.99,,2013-01-12 21:33:00,
2013-01-12 14:43:00,6.0,-14.0,-100.00,South,170,4.0,7.0,39,0.00,,,-99.99,,2013-01-12 21:43:00,
2013-01-12 14:52:00,5.0,-14.0,-100.00,South,185,9.0,11.0,40,0.00,,,-99.99,,2013-01-12 21:52:00,
2013-01-12 15:02:00,5.0,-14.0,-100.00,South,175,9.0,11.0,41,0.00,,,-99.99,,2013-01-12 22:02:00,
2013-01-12 15:12:00,6.0,-13.0,-100.00,South,180,4.0,10.0,41,0.00,,,-99.99,,2013-01-12 22:12:00,
2013-01-12 15:22:00,6.0,-12.0,-100.00,South,175,4.0,6.0,41,0.00,,,-99.99,,2013-01-12 22:22:00,
2013-01-12 15:33:00,7.0,-12.0,-100.00,NNW,345,4.0,6.0,40,0.00,,,-99.99,,2013-01-12 22:33:00,
2013-01-12 15:43:00,8.0,-12.0,-100.00,North,10,4.0,6.0,38,0.00,,,-99.99,,2013-01-12 22:43:00,
2013-01-12 15:52:00,7.0,-13.0,-100.00,North,350,2.0,6.0,37,0.00,,,-99.99,,2013-01-12 22:52:00,
2013-01-12 16:02:00,7.0,-13.0,-100.00,NNW,345,2.0,3.0,37,0.00,,,-99.99,,2013-01-12 23:02:00,
2013-01-12 16:12:00,8.0,-13.0,-100.00,ESE,110,0.0,2.0,36,0.00,,,-99.99,,2013-01-12 23:12:00,
2013-01-12 16:22:00,8.0,-13.0,-100.00,SSE,160,4.0,6.0,36,0.00,,,-99.99,,2013-01-12 23:22:00,
2013-01-12 16:33:00,8.0,-13.0,-100.00,SSE,160,4.0,6.0,36,0.00,,,-99.99,,2013-01-12 23:33:00,
2013-01-12 16:43:00,6.0,-14.0,-100.00,SSE,160,2.0,4.0,39,0.00,,,-99.99,,2013-01-12 23:43:00,
2013-01-12 16:53:00,6.0,-14.0,-100.00,SSE,160,2.0,4.0,39,0.00,,,-99.99,,2013-01-12 23:53:00,
2013-01-12 17:03:00,5.0,-15.0,-100.00,SE,135,2.0,3.0,39,0.00,,,-99.99,,2013-01-13 00:03:00,
2013-01-12 17:12:00,3.0,-16.0,-100.00,SE,145,1.0,2.0,39,0.00,,,-99.99,,2013-01-13 00:12:00,
2013-01-12 17:22:00,2.0,-17.0,-100.00,North,5,6.0,9.0,41,0.00,,,-99.99,,2013-01-13 00:22:00,
2013-01-12 17:33:00,0.0,-15.0,-100.00,NNW,345,12.0,14.0,48,0.00,,,-99.99,,2013-01-13 00:33:00,
2013-01-12 17:43:00,0.0,-15.0,-100.00,NNW,345,12.0,14.0,48,0.00,,,-99.99,,2013-01-13 00:43:00,
2013-01-12 17:52:00,0.0,-14.0,-100.00,NW,320,7.0,11.0,52,0.00,,,-99.99,,2013-01-13 00:52:00,
2013-01-12 18:03:00,0.0,-13.0,-100.00,NNW,335,9.0,12.0,52,0.00,,,-99.99,,2013-01-13 01:03:00,
2013-01-12 18:12:00,0.0,-13.0,-100.00,NNW,335,9.0,12.0,52,0.00,,,-99.99,,2013-01-13 01:12:00,
2013-01-12 18:22:00,-2.0,-14.0,-100.00,North,0,12.0,14.0,54,0.00,,,-99.99,,2013-01-13 01:22:00,
2013-01-12 18:32:00,-3.0,-15.0,-100.00,North,350,10.0,14.0,54,0.00,,,-99.99,,2013-01-13 01:32:00,
2013-01-12 18:43:00,-4.0,-16.0,-100.00,North,0,10.0,34.0,54,0.00,,,-99.99,,2013-01-13 01:43:00,
2013-01-12 18:53:00,-5.0,-17.0,-100.00,North,10,12.0,22.0,54,0.00,,,-99.99,,2013-01-13 01:53:00,
2013-01-12 19:02:00,-5.0,-17.0,-100.00,NNE,15,18.0,85.0,54,0.00,,,-99.99,,2013-01-13 02:02:00,
2013-01-12 19:12:00,-5.0,-18.0,-100.00,North,5,14.0,109.0,53,0.00,,,-99.99,,2013-01-13 02:12:00,
2013-01-12 19:22:00,-5.0,-18.0,-100.00,North,5,14.0,109.0,53,0.00,,,-99.99,,2013-01-13 02:22:00,
2013-01-12 19:32:00,-3.0,-17.0,-100.00,West,265,7.0,99.0,50,0.00,,,-99.99,,2013-01-13 02:32:00,
2013-01-12 19:42:00,-4.0,-18.0,-100.00,West,265,53.0,98.0,49,0.00,,,-99.99,,2013-01-13 02:42:00,
2013-01-12 19:52:00,-8.0,-22.0,-100.00,West,260,34.0,94.0,50,0.00,,,-99.99,,2013-01-13 02:52:00,
2013-01-12 20:02:00,-8.0,-22.0,-100.00,West,260,34.0,94.0,50,0.00,,,-99.99,,2013-01-13 03:02:00,
2013-01-12 20:12:00,-9.0,-21.0,-100.00,West,260,56.0,91.0,52,0.00,,,-99.99,,2013-01-13 03:12:00,
2013-01-12 20:22:00,-9.0,-21.0,-100.00,East,90,21.0,97.0,51,0.00,,,-99.99,,2013-01-13 03:22:00,
2013-01-12 20:33:00,-8.0,-21.0,-100.00,East,85,35.0,99.0,52,0.00,,,-99.99,,2013-01-13 03:33:00,
2013-01-12 20:43:00,-8.0,-21.0,-100.00,East,85,35.0,99.0,52,0.00,,,-99.99,,2013-01-13 03:43:00,
2013-01-12 20:53:00,-7.0,-20.0,-100.00,West,265,43.0,109.0,52,0.00,,,-99.99,,2013-01-13 03:53:00,
2013-01-12 21:02:00,-9.0,-21.0,-100.00,South,175,12.0,97.0,52,0.00,,,-99.99,,2013-01-13 04:02:00,
2013-01-12 21:12:00,-10.0,-23.0,-100.00,South,175,23.0,109.0,52,0.00,,,-99.99,,2013-01-13 04:12:00,
2013-01-12 21:22:00,-9.0,-22.0,-100.00,East,90,46.0,99.0,52,0.00,,,-99.99,,2013-01-13 04:22:00,
2013-01-12 21:33:00,-10.0,-23.0,-100.00,East,90,35.0,98.0,53,0.00,,,-99.99,,2013-01-13 04:33:00,
2013-01-12 21:42:00,-10.0,-23.0,-100.00,East,90,35.0,98.0,53,0.00,,,-99.99,,2013-01-13 04:42:00,
2013-01-12 21:52:00,-14.0,-25.0,-100.00,East,90,56.0,109.0,56,0.00,,,-99.99,,2013-01-13 04:52:00,
2013-01-12 22:03:00,-15.0,-26.0,-100.00,East,90,53.0,109.0,56,0.00,,,-99.99,,2013-01-13 05:03:00,
2013-01-12 22:12:00,-16.0,-27.0,-100.00,West,265,27.0,109.0,56,0.00,,,-99.99,,2013-01-13 05:12:00,
2013-01-12 22:22:00,-16.0,-27.0,-100.00,West,265,27.0,109.0,56,0.00,,,-99.99,,2013-01-13 05:22:00,
2013-01-12 22:32:00,-8.0,-20.0,-100.00,West,265,44.0,109.0,56,0.00,,,-99.99,,2013-01-13 05:32:00,
2013-01-12 22:42:00,-11.0,-23.0,-100.00,East,90,67.0,109.0,54,0.00,,,-99.99,,2013-01-13 05:42:00,
2013-01-12 22:52:00,-13.0,-25.0,-100.00,South,175,49.0,109.0,55,0.00,,,-99.99,,2013-01-13 05:52:00,
2013-01-12 23:03:00,-12.0,-24.0,-100.00,South,175,65.0,109.0,56,0.00,,,-99.99,,2013-01-13 06:03:00,
2013-01-12 23:12:00,-12.0,-24.0,-100.00,South,175,65.0,109.0,56,0.00,,,-99.99,,2013-01-13 06:12:00,
2013-01-12 23:22:00,-9.0,-21.0,-100.00,South,175,50.0,109.0,54,0.00,,,-99.99,,2013-01-13 06:22:00,
2013-01-12 23:32:00,-9.0,-21.0,-100.00,South,175,50.0,109.0,54,0.00,,,-99.99,,2013-01-13 06:32:00,
2013-01-12 23:42:00,-12.0,-24.0,-100.00,East,85,62.0,109.0,54,0.00,,,-99.99,,2013-01-13 06:42:00,
2013-01-12 23:52:00,-15.0,-27.0,-100.00,South,175,107.0,109.0,54,0.00,,,-99.99,,2013-01-13 06:52:00,